FALCON 9 DEB (46802 NORAD) Tracking and Keplerian Element Data
This shows tracking and keplerian element data for the satellite.
Feedback or suggestion? Click here.
Element | Value |
Catalog | 46802 |
Name | FALCON 9 DEB |
Epoch Orbit | 430 |
Epoch Day | 322.44978624 |
Epoch Year | 2020 |
RAAN | 38.342 |
Inclination | 53.0433 |
Eccentricity | 0.0006115 |
Argument of Perigee | 12.4276 |
Mean Anonmoly | 347.6918 |
Mean Motion | 16.36331458 |
Decay Rate | 0.04544793 |
L1 | 1 46802U 20074BR 20322.44978624 .04544793 12312-4 50513-3 0 9992 |
L2 | 2 46802 53.0433 38.3420 0006115 12.4276 347.6918 16.36331458 4300 |
Live tracking and technical data element details for FALCON 9 DEB (NORAD 46802). FALCON 9 DEB can be tracked NOW for your location showing map with azimuth and elevation plus other details from your city location.
Track the satellite on the map from your city or location and see movement details for azimuth, elevation, latitude, longitude, range, height, and movement on the map or in text.
IsCatalogInMostPopularTable: catalog: 46802, numindb: 27
Update: records affected: 1
GetName: 46802 FALCON 9 DEB
Hit Count: updated at: Fri, 22 Jan 2021 19:23:25 GMT